Location: *
(50.3440°N, 18.6237°E)
Time: 18:23:07
(UTC+00:00)

Daily predictions for brighter satellites

Satellite Brightness Start Highest point End
(mag) Time Altitude Azimuth Time Altitude Azimuth Time Altitude Azimuth
BREEZE-M DEB (TANK) 4.2 15:08:26 10° WSW 15:12:08 71° SSE 15:24:21 10° ENE
Cosmos 2285 Rocket 4.3 15:12:48 10° NNW 15:18:59 48° ENE 15:25:06 10° SE
ADEOS Rocket 3.7 15:11:37 10° NNE 15:19:19 62° E 15:26:56 10° S
NOAA 6 4.1 15:14:36 10° SSE 15:19:40 61° ENE 15:24:44 10° N
Cosmos 405 Rocket 3.5 15:18:00 10° NNW 15:21:53 59° W 15:25:50 10° S
Cosmos 1743 Rocket 4.1 15:17:57 10° NNW 15:22:24 65° W 15:26:47 10° S
Cosmos 2297 3.7 15:18:03 10° NNW 15:23:42 63° ENE 15:29:22 10° SE
Cosmos 1151 Rocket 4.4 15:20:46 10° SE 15:23:52 20° E 15:26:57 10° NE
Cosmos 2322 Rocket 4.3 15:20:24 10° WNW 15:23:59 17° NNW 15:27:34 10° N
Cosmos 1867 3.9 15:23:46 10° SSW 15:29:03 55° ESE 15:34:24 10° NE
Cosmos 44 3.5 15:25:17 10° NW 15:30:35 85° NE 15:36:01 10° SE
SL-16 R/B 2.8 15:25:32 10° S 15:30:41 38° ESE 15:35:52 10° NE
Cosmos 1606 3.0 15:31:01 10° S 15:34:46 48° E 15:38:31 10° NNE
Envisat 3.0 15:35:21 10° SSE 15:40:26 88° ENE 15:45:33 10° NNW
NOSS 0 Rocket 4.3 15:35:04 10° SW 15:41:16 68° NW 15:47:30 10° NNE
Cosmos 1805 Rocket 3.8 15:36:49 10° NNW 15:41:17 80° W 15:45:42 10° S
ISS -3.7 15:39:17 10° W 15:42:40 75° N 15:45:37 13° ENE
YAOGAN 6 2.5 15:39:11 10° SSE 15:42:48 74° ENE 15:46:24 10° N
Cosmos 1328 Rocket 4.4 15:44:30 10° SSE 15:48:16 30° E 15:52:04 10° NNE
Cosmos 1666 Rocket 3.6 15:44:05 10° N 15:48:29 62° ENE 15:52:53 10° SSE
Cosmos 482 Debris 3.4 15:47:09 10° W 15:48:54 43° SSW 15:50:41 10° SE
Radarsat Rocket 4.3 15:46:23 10° SSE 15:52:36 87° WSW 15:59:38 10° NNW
Helios 1A Rocket 4.4 15:53:37 14° E 15:55:05 16° ENE 15:57:35 10° NNE
Cosmos 2333 Rocket 3.9 15:52:57 10° W 15:57:42 27° NW 16:02:28 10° NNE
Cosmos 2360 Rocket 4.4 15:57:18 10° WNW 16:00:39 16° NNW 16:04:02 10° N
Cosmos 2219 Rocket 3.9 15:59:27 10° W 16:04:08 26° NW 16:08:49 10° NNE
H-2A R/B 1.9 16:00:06 10° NNE 16:04:18 74° ESE 16:08:35 10° S
COSMOS 2428 4.3 15:59:38 10° WSW 16:04:36 29° NW 16:09:35 10° NNE
H-2A R/B 3.2 16:00:30 10° S 16:04:40 58° WSW 16:08:43 10° NNW
Okean-O 3.8 16:01:25 10° ESE 16:04:50 22° ENE 16:08:15 10° N
Okean O Rocket 1.5 16:00:33 10° SSE 16:04:54 81° ENE 16:09:20 10° NNW
Cosmos 1939 Rocket 3.4 16:02:35 10° SE 16:06:07 34° ENE 16:09:42 10° N
CZ-4 R/B 2.7 16:05:01 17° E 16:06:20 20° ENE 16:09:19 10° NNE
CZ-2C R/B 3.8 16:02:53 10° ESE 16:06:53 25° ENE 16:10:47 10° N
CZ-4B R/B 2.2 16:06:15 22° ENE 16:07:21 27° E 16:10:05 10° SSE
Cosmos 2218 Rocket 3.9 16:03:02 10° N 16:09:11 69° ENE 16:15:18 10° SSE
CORIOLIS 4.2 16:05:51 10° SSE 16:11:16 87° ENE 16:16:46 10° NNW
Cosmos 2366 rocket 3.9 16:05:26 10° N 16:11:37 69° ENE 16:17:45 10° SSE
CZ-4C R/B 3.6 16:08:06 10° N 16:11:43 61° WNW 16:15:16 10° SSW
Meteor 1-20 Rocket 4.3 16:06:22 10° NNW 16:12:17 87° ENE 16:18:06 10° SSE
Cosmos 1633 Rocket 3.0 16:09:17 10° N 16:13:41 89° NE 16:18:03 10° S
SKYMED 2 4.4 16:16:14 20° NE 16:18:24 30° E 16:22:13 10° SSE
Meteor 1-26 Rocket 4.4 16:13:12 10° S 16:19:05 57° E 16:24:58 10° NNE
USA 81 4.0 16:15:18 10° N 16:20:38 82° E 16:25:55 10° S
Meteor 1-14 Rocket 4.4 16:15:28 10° N 16:21:22 59° ENE 16:27:16 10° SSE
Cosmos 1602 3.6 16:17:46 10° N 16:21:41 65° ENE 16:25:33 10° SSE
Cosmos 2237 Rocket 3.2 16:17:02 10° WSW 16:22:23 43° NW 16:27:47 10° NNE
TELKOM 3 3.0 16:20:15 10° W 16:23:00 83° S 16:23:31 51° E
NOAA 11 4.1 16:17:50 10° SSE 16:23:16 85° ENE 16:28:44 10° NNW
CZ-4B R/B 3.6 16:18:03 10° S 16:23:20 65° WSW 16:28:37 10° NNW
H-2A R/B 2.9 16:25:53 20° ESE 16:28:15 28° ENE 16:32:33 10° N
Meteor 1-4 Rocket 2.6 16:25:00 10° S 16:28:30 53° E 16:30:11 26° NNE
SMAP 3.8 16:24:54 10° S 16:29:27 55° W 16:34:04 10° NNW
Cosmos 2369 Rocket 2.1 16:24:53 10° NNW 16:30:37 75° ENE 16:36:17 10° SE
Cosmos 1943 4.1 16:26:04 10° SSE 16:30:48 28° ESE 16:32:09 25° E
IRS-1C Rocket 4.1 16:26:16 10° SE 16:31:26 58° ENE 16:36:38 10° N
CZ-2D R/B 3.5 16:28:40 10° SE 16:32:19 45° ENE 16:36:01 10° N
USA 281 3.3 16:27:00 10° SE 16:33:17 51° NE 16:39:36 10° NNW
Cosmos 1782 2.8 16:30:01 10° S 16:33:54 59° E 16:36:36 19° NNE
USA 267 3.3 16:31:09 21° E 16:35:40 64° NNE 16:42:08 10° WNW
Cosmos 1943 Rocket 2.5 16:30:28 10° NNW 16:35:59 68° WSW 16:41:31 10° SSE
Cosmos 1933 3.7 16:32:11 10° SSW 16:36:12 64° WNW 16:40:17 10° N
Cosmos 389 Rocket 4.5 16:37:01 10° SW 16:40:00 27° WNW 16:42:59 10° N
BREEZE-M DEB (TANK) 1.8 16:43:15 10° W 16:45:13 71° SSW 16:45:13 71° SSW
ARGOS 3.9 16:45:49 30° ENE 16:45:49 30° ENE 16:50:14 10° N
SL-24 R/B 3.9 16:50:07 49° ESE 16:50:07 49° ESE 16:53:35 10° S
YAOGAN 1 2.7 16:51:53 44° E 16:52:26 47° ENE 16:56:36 10° N
X-37B 2.3 16:50:32 10° SW 16:52:59 23° S 16:52:59 23° S
Cosmos 1538 Rocket 4.0 16:49:44 10° SSW 16:55:05 73° ESE 16:58:04 27° NNE
Cosmos 1470 Rocket 4.0 16:50:51 10° NNW 16:55:08 60° W 16:59:23 10° S
Lacrosse 5 rocket 1.2 16:51:45 10° WSW 16:55:20 61° NNW 16:55:50 54° NNE
Cosmos 1934 Rocket 4.3 16:51:41 10° N 16:57:44 43° ENE 17:02:50 14° SE
Cosmos 1371 Rocket 4.5 16:53:06 10° NNW 16:57:45 38° NE 16:57:45 38° NE
ERS-2 2.1 16:57:22 40° N 16:58:38 84° WNW 17:02:17 10° SSW
Cosmos 1151 Rocket 4.0 16:56:58 10° SSW 17:01:05 47° WNW 17:05:14 10° N
Cosmos 44 Rocket 3.3 16:56:36 10° NW 17:01:46 68° NE 17:03:28 42° ESE
Cosmos 2056 Rocket 4.1 16:59:25 10° NNW 17:03:47 37° NE 17:03:47 37° NE
Cosmos 1515 Rocket 3.6 17:00:12 10° SSW 17:04:35 82° WNW 17:07:30 21° N
Nadezhda 3 Rocket 4.0 16:58:38 10° S 17:04:52 60° E 17:11:08 10° NNE
COSMO-SKYMED 1 2.4 17:04:49 35° NNE 17:06:37 85° E 17:10:59 10° SSW
EO 1 Delta rocket 4.5 17:02:25 10° N 17:08:02 84° E 17:15:12 10° S
CENTAUR R/B 3.7 17:03:20 10° SSE 17:06:27 23° SE 17:06:27 23° SE
BREEZE-M DEB (TANK) 4.2 17:08:24 10° WSW 17:09:12 20° WSW 17:09:12 20° WSW
Cosmos 2228 Rocket 3.2 17:07:23 10° S 17:11:14 55° SE 17:11:14 55° SE
Cosmos 1821 Rocket 3.9 17:05:38 10° N 17:11:55 83° E 17:18:15 10° S
SL-16 R/B 3.1 17:09:20 10° SW 17:14:45 45° NW 17:18:39 18° NNE
DEBRIS 3.8 17:05:08 10° W 17:18:00 72° SSW 17:19:15 49° SE
ISS -2.6 17:16:14 10° WNW 17:18:35 42° WNW 17:18:35 42° WNW
Cosmos 1624 Rocket 4.4 17:16:15 10° NNW 17:20:29 45° NNE 17:20:29 45° NNE
Cosmos 1500 3.7 17:18:51 10° NNW 17:22:37 60° W 17:26:24 10° S
SL-23 DEB 4.4 17:22:04 10° WSW 17:26:06 70° SSE 17:26:32 66° ESE
Helios 1A Rocket 3.2 17:29:51 65° W 17:29:51 65° W 17:33:49 10° NNW
Cosmos 1656 Rocket 3.9 17:26:24 10° NNW 17:32:03 70° WSW 17:35:32 23° SSE
NOSS 3-2 (A) 3.5 17:32:23 10° SSW 17:37:25 55° SSE 17:37:25 55° SSE
CZ-4B R/B 3.8 17:39:23 20° WNW 17:39:28 20° WNW 17:41:48 10° WSW
Okean-O 3.3 17:36:41 10° S 17:40:59 52° W 17:45:22 10° NNW
CZ-4 R/B 2.2 17:41:03 48° W 17:41:03 48° W 17:45:00 10° NNW
Meteor 2-6 Rocket 4.3 17:37:44 10° SSW 17:43:18 73° WNW 17:45:25 38° N
USA 215 3.1 17:43:41 63° ESE 17:44:17 66° SE 17:50:47 10° SW
CSL-04 Debris 4.1 17:43:18 52° S 17:44:42 85° WSW 17:50:14 10° NNW
Meteor 1-11 Rocket 3.7 17:39:47 10° NNW 17:45:35 84° W 17:48:35 31° S
CZ-2C R/B 3.7 17:41:41 10° S 17:46:32 51° W 17:51:15 10° NNW
Cosmos 371 Rocket 4.2 17:44:13 10° NNW 17:47:24 41° NNW 17:47:24 41° NNW
USA 238 DEB 3.7 17:50:05 10° SSW 17:55:54 63° SSE 17:55:54 63° SSE
USA 238 3.7 17:50:11 10° SSW 17:55:58 62° SSE 17:55:58 62° SSE
CSL-04 Rocket 3.9 18:01:09 66° W 18:01:09 66° W 18:06:08 10° NNW
MOS 1 Rocket 4.0 18:03:11 63° WNW 18:03:21 64° WNW 18:08:41 10° SSW
H-2A R/B 2.7 18:06:32 46° SW 18:07:27 52° W 18:12:29 10° NNW
Cosmos 1603 4.2 18:04:32 10° SW 18:09:58 56° WNW 18:09:58 56° WNW
Cosmos 1943 3.7 18:08:55 10° SW 18:14:01 56° WNW 18:14:01 56° WNW
USA 281 4.2 18:11:45 10° S 18:17:54 42° WSW 18:24:05 10° NW
USA 267 3.4 18:18:31 63° SSW 18:18:44 64° SW 18:25:14 10° WNW
ARGOS 4.4 18:27:20 37° NW 18:27:20 37° NW 18:30:54 10° NNW
CENTAUR R/B 4.3 18:51:49 10° SW 18:53:41 22° SW 18:53:41 22° SW
